This is the latest recevied weather packets stored in our database for station/object WA4OPQ-1. If no packets are shown the sender has not sent any weather packets the latest 10 day(s).
| Time | Temp. | Humidity | Pressure | Rain* | Wind** | Luminosity | Snow |
|---|---|---|---|---|---|---|---|
| 1787924786 | 22.22° C | 91% | 1016.2 hPa | 0 mm | 0 m/s | 66 W/m² | - |
| 1787924203 | 21.11° C | 94% | 1016.1 hPa | 0 mm | 0 m/s | 65 W/m² | - |
| 1787923623 | 20.56° C | 94% | 1016 hPa | 0 mm | 0 m/s | 50 W/m² | - |
| 1787923078 | 20.56° C | 94% | 1016 hPa | 0 mm | 0 m/s | 42 W/m² | - |
| 1787922546 | 20.56° C | 94% | 1016.1 hPa | 0 mm | 0 m/s | 46 W/m² | - |
| 1787921981 | 20° C | 96% | 1016 hPa | 0 mm | 0 m/s | 45 W/m² | - |
| 1787921403 | 19.44° C | 98% | 1016.4 hPa | 0 mm | 0 m/s | 51 W/m² | - |
| 1787920853 | 19.44° C | 98% | 1016 hPa | 0 mm | 0 m/s | 42 W/m² | - |
| 1787920308 | 18.89° C | 99% | 1016.1 hPa | 0 mm | 0 m/s | 34 W/m² | - |
| 1787919772 | 18.89° C | 99% | 1016.2 hPa | 0 mm | 0 m/s | 27 W/m² | - |
| 1787919278 | 18.89° C | 99% | 1015.9 hPa | 0 mm | 0 m/s | 21 W/m² | - |
| 1787918708 | 18.89° C | 99% | 1015.9 hPa | 0 mm | 0 m/s | 19 W/m² | - |
| 1787918213 | 18.89° C | 99% | 1016.1 hPa | 0 mm | 0 m/s | 16 W/m² | - |
| 1787917713 | 18.89° C | 99% | 1015.5 hPa | 0 mm | 0 m/s | 11 W/m² | - |
| 1787917166 | 18.89° C | 99% | 1015.6 hPa | 0 mm | 0 m/s | 7 W/m² | - |
| 1787916653 | 18.89° C | 99% | 1015.4 hPa | 0 mm | 0 m/s | 3 W/m² | - |
| 1787916063 | 18.89° C | 99% | 1015.1 hPa | 0 mm | 0 m/s | 0 W/m² | - |
| 1787915506 | 18.89° C | 99% | 1015.3 hPa | 0 mm | 0 m/s | 0 W/m² | - |
| 1787914923 | 18.89° C | 98% | 1015.4 hPa | 0 mm | 0 m/s | 0 W/m² | - |
| 1787914413 | 18.89° C | 98% | 1015.3 hPa | 0 mm | 0 m/s | 0 W/m² | - |
| 1787913823 | 19.44° C | 97% | 1014.9 hPa | 0 mm | 0 m/s | 0 W/m² | - |
| 1787913253 | 19.44° C | 97% | 1014.8 hPa | 0 mm | 0 m/s | 0 W/m² | - |
| 1787912738 | 19.44° C | 97% | 1014.8 hPa | 0 mm | 0 m/s | 0 W/m² | - |
| 1787912243 | 19.44° C | 96% | 1014.8 hPa | 0 mm | 0 m/s | 0 W/m² | - |
| 1787911726 | 19.44° C | 96% | 1014.7 hPa | 0 mm | 0 m/s | 0 W/m² | - |
* Rain latest hour (hover to see other rain measurements)
** Current wind speed in m/s (hover to see current wind gust speed)